Radiation Dose at Monitoring Post of Fukushima Daini Nuclear Power Station
Date,Time,MP-1(microSv/h),MP-2(microSv/h),MP-3(microSv/h),MP-4(microSv/h),MP-5(microSv/h),MP-6(microSv/h),MP-7(microSv/h),Wind Direction,Wind Velocity(m/s),Rain
2021/02/14,00:00,0.179,0.162,0.263,0.249,0.243,0.142,0.086,southwest,6.2,No
2021/02/14,00:10,0.181,0.163,0.262,0.250,0.242,0.144,0.087,southwest,4.8,No
2021/02/14,00:20,0.181,0.163,0.263,0.249,0.241,0.142,0.087,southwest,4.4,No
2021/02/14,00:30,0.180,0.163,0.263,0.249,0.242,0.143,0.086,southwest,4.6,No
2021/02/14,00:40,0.181,0.163,0.262,0.247,0.241,0.142,0.086,southwest,6.3,No
2021/02/14,00:50,0.181,0.163,0.262,0.251,0.242,0.143,0.086,south-southwest,6.0,No
2021/02/14,01:00,0.182,0.163,0.262,0.249,0.242,0.142,0.087,south-southwest,7.3,No
2021/02/14,01:10,0.180,0.163,0.262,0.250,0.240,0.143,0.086,south-southwest,6.8,No
2021/02/14,01:20,0.180,0.163,0.263,0.249,0.239,0.143,0.086,south,5.2,No
2021/02/14,01:30,0.182,0.163,0.262,0.249,0.243,0.143,0.086,south-southwest,5.0,No
2021/02/14,01:40,0.180,0.163,0.261,0.248,0.242,0.143,0.086,south-southwest,5.5,No
2021/02/14,01:50,0.181,0.163,0.262,0.248,0.240,0.144,0.087,south,4.9,No
2021/02/14,02:00,0.181,0.163,0.263,0.249,0.240,0.144,0.087,south-southwest,4.9,No
2021/02/14,02:10,0.181,0.163,0.262,0.248,0.241,0.143,0.086,south-southwest,4.5,No
2021/02/14,02:20,0.181,0.163,0.262,0.248,0.241,0.142,0.086,south-southwest,5.3,No
2021/02/14,02:30,0.181,0.163,0.262,0.249,0.241,0.142,0.086,south-southwest,5.9,No
2021/02/14,02:40,0.181,0.164,0.262,0.247,0.242,0.143,0.086,south-southwest,5.0,No
2021/02/14,02:50,0.181,0.164,0.262,0.249,0.240,0.143,0.086,south-southwest,5.5,No
2021/02/14,03:00,0.180,0.162,0.263,0.248,0.242,0.143,0.086,south-southwest,5.5,No
2021/02/14,03:10,0.181,0.163,0.261,0.248,0.242,0.142,0.086,south-southwest,5.1,No
2021/02/14,03:20,0.181,0.162,0.261,0.249,0.240,0.143,0.086,southwest,5.7,No
2021/02/14,03:30,0.181,0.162,0.262,0.249,0.241,0.143,0.086,southwest,5.3,No
2021/02/14,03:40,0.181,0.162,0.262,0.249,0.241,0.143,0.086,south-southwest,5.5,No
2021/02/14,03:50,0.181,0.163,0.261,0.249,0.241,0.143,0.085,south-southwest,5.4,No
2021/02/14,04:00,0.181,0.165,0.262,0.248,0.241,0.143,0.086,south-southwest,5.2,No
2021/02/14,04:10,0.180,0.163,0.262,0.248,0.242,0.142,0.086,south-southwest,5.7,No
2021/02/14,04:20,0.180,0.163,0.263,0.250,0.240,0.143,0.085,south-southwest,5.2,No
2021/02/14,04:30,0.181,0.163,0.261,0.248,0.241,0.143,0.086,south-southwest,5.2,No
2021/02/14,04:40,0.180,0.164,0.261,0.248,0.242,0.143,0.086,south-southwest,3.9,No
2021/02/14,04:50,0.180,0.164,0.262,0.248,0.242,0.143,0.086,south,3.5,No
2021/02/14,05:00,0.181,0.163,0.262,0.249,0.241,0.142,0.086,south-southwest,3.9,No
2021/02/14,05:10,0.181,0.163,0.262,0.248,0.240,0.142,0.086,south,4.5,No
2021/02/14,05:20,0.180,0.163,0.262,0.248,0.240,0.144,0.086,south,6.0,No
2021/02/14,05:30,0.180,0.163,0.262,0.249,0.242,0.143,0.086,south,5.6,No
2021/02/14,05:40,0.182,0.164,0.262,0.248,0.242,0.143,0.087,south-southwest,7.0,No
2021/02/14,05:50,0.182,0.163,0.263,0.248,0.241,0.143,0.086,south-southwest,7.1,No
2021/02/14,06:00,0.181,0.163,0.262,0.249,0.241,0.143,0.087,south-southwest,3.2,No
2021/02/14,06:10,0.181,0.163,0.261,0.249,0.241,0.143,0.087,southwest,2.5,No
2021/02/14,06:20,0.182,0.162,0.261,0.248,0.241,0.144,0.086,southwest,1.4,No
2021/02/14,06:30,0.181,0.164,0.261,0.250,0.241,0.143,0.086,southwest,1.9,No
2021/02/14,06:40,0.181,0.163,0.261,0.248,0.241,0.142,0.086,south-southwest,1.9,No
2021/02/14,06:50,0.181,0.163,0.262,0.249,0.242,0.143,0.087,south-southwest,1.6,No
2021/02/14,07:00,0.181,0.163,0.261,0.249,0.241,0.143,0.087,south-southwest,2.6,No
2021/02/14,07:10,0.181,0.164,0.262,0.249,0.241,0.143,0.086,southwest,3.1,No
2021/02/14,07:20,0.180,0.163,0.262,0.249,0.241,0.144,0.086,south-southwest,4.3,No
2021/02/14,07:30,0.181,0.163,0.261,0.249,0.242,0.143,0.087,south-southwest,4.4,No
2021/02/14,07:40,0.181,0.163,0.262,0.248,0.241,0.143,0.086,southwest,3.3,No
2021/02/14,07:50,0.181,0.163,0.262,0.249,0.242,0.143,0.086,southwest,3.6,No
2021/02/14,08:00,0.181,0.164,0.262,0.249,0.242,0.143,0.086,southwest,3.2,No
2021/02/14,08:10,0.181,0.162,0.262,0.249,0.240,0.143,0.086,southwest,2.3,No
2021/02/14,08:20,0.182,0.163,0.262,0.249,0.242,0.144,0.087,south-southwest,2.1,No
2021/02/14,08:30,0.181,0.163,0.261,0.249,0.242,0.144,0.086,south-southwest,1.9,No
2021/02/14,08:40,0.181,0.162,0.262,0.247,0.243,0.143,0.087,south-southwest,1.4,No
2021/02/14,08:50,0.181,0.163,0.262,0.249,0.242,0.142,0.086,south,2.8,No
2021/02/14,09:00,0.181,0.163,0.261,0.247,0.241,0.143,0.086,south,3.1,No
2021/02/14,09:10,0.181,0.163,0.262,0.249,0.243,0.142,0.086,south,5.1,No
2021/02/14,09:20,0.181,0.162,0.261,0.248,0.242,0.142,0.086,south-southwest,5.0,No
2021/02/14,09:30,0.180,0.163,0.261,0.247,0.242,0.142,0.086,south-southwest,4.7,No
2021/02/14,09:40,0.181,0.162,0.261,0.247,0.241,0.143,0.086,south-southwest,4.8,No
2021/02/14,09:50,0.179,0.163,0.261,0.248,0.242,0.143,0.086,south,5.7,No
2021/02/14,10:00,0.181,0.161,0.262,0.247,0.239,0.142,0.085,south,7.3,No
2021/02/14,10:10,0.179,0.163,0.261,0.250,0.243,0.143,0.088,south,6.6,No
2021/02/14,10:20,0.178,0.162,0.263,0.246,0.240,0.143,0.086,south,6.1,No
2021/02/14,10:30,0.181,0.163,0.261,0.249,0.241,0.143,0.087,south,6.4,No
2021/02/14,10:40,0.178,0.161,0.261,0.247,0.241,0.143,0.086,south,7.3,No
2021/02/14,10:50,0.180,0.162,0.260,0.247,0.238,0.142,0.085,south,6.3,No
2021/02/14,11:00,0.181,0.163,0.261,0.248,0.242,0.143,0.086,south,6.7,No
2021/02/14,11:10,0.179,0.162,0.259,0.247,0.241,0.143,0.086,south,7.5,No
2021/02/14,11:20,0.179,0.162,0.260,0.250,0.239,0.143,0.086,south-southeast,7.3,No
2021/02/14,11:30,0.180,0.162,0.262,0.248,0.241,0.142,0.086,south-southeast,7.1,No
2021/02/14,11:40,0.178,0.162,0.259,0.246,0.240,0.142,0.085,south-southeast,7.3,No
2021/02/14,11:50,0.178,0.161,0.262,0.248,0.239,0.143,0.087,south,8.1,No
2021/02/14,12:00,0.180,0.162,0.261,0.247,0.242,0.143,0.086,south-southeast,7.5,No
2021/02/14,12:10,0.180,0.163,0.260,0.248,0.239,0.143,0.086,south-southeast,8.8,No
2021/02/14,12:20,0.180,0.162,0.261,0.247,0.243,0.142,0.085,south,7.8,No
2021/02/14,12:30,0.181,0.163,0.260,0.247,0.242,0.143,0.086,south,7.9,No
2021/02/14,12:40,0.181,0.162,0.260,0.249,0.239,0.143,0.086,south-southeast,8.2,No
2021/02/14,12:50,0.178,0.162,0.262,0.246,0.239,0.143,0.085,south-southeast,7.9,No
2021/02/14,13:00,0.179,0.163,0.261,0.248,0.241,0.142,0.086,south,8.2,No
2021/02/14,13:10,0.181,0.161,0.258,0.248,0.238,0.141,0.085,south,8.1,No
2021/02/14,13:20,0.178,0.162,0.262,0.246,0.239,0.144,0.086,south,8.2,No
2021/02/14,13:30,0.178,0.162,0.260,0.248,0.241,0.142,0.086,south-southeast,9.5,No
2021/02/14,13:40,0.180,0.162,0.260,0.247,0.239,0.142,0.086,south,10.1,No
2021/02/14,13:50,0.180,0.162,0.262,0.247,0.240,0.142,0.086,south,11.4,No
2021/02/14,14:00,0.178,0.162,0.260,0.249,0.241,0.141,0.086,south-southeast,9.0,No
2021/02/14,14:10,0.181,0.162,0.262,0.247,0.239,0.144,0.086,south-southeast,9.6,No
2021/02/14,14:20,0.179,0.162,0.261,0.250,0.240,0.142,0.086,south-southeast,9.2,No
2021/02/14,14:30,0.179,0.162,0.261,0.248,0.242,0.143,0.086,south,10.6,No
2021/02/14,14:40,0.180,0.162,0.263,0.247,0.241,0.143,0.086,south,10.3,No
2021/02/14,14:50,0.181,0.162,0.262,0.249,0.244,0.143,0.085,south,10.3,No
2021/02/14,15:00,0.181,0.163,0.263,0.248,0.240,0.142,0.086,south,10.9,No
2021/02/14,15:10,0.181,0.162,0.263,0.248,0.242,0.142,0.086,south,11.7,No
2021/02/14,15:20,0.179,0.162,0.261,0.249,0.240,0.143,0.087,south,9.8,No
2021/02/14,15:30,0.182,0.162,0.262,0.249,0.243,0.142,0.085,south,7.8,No
2021/02/14,15:40,0.179,0.164,0.262,0.249,0.241,0.143,0.086,south,8.5,No
2021/02/14,15:50,0.182,0.162,0.263,0.248,0.243,0.142,0.087,south,7.9,No
2021/02/14,16:00,0.180,0.162,0.261,0.249,0.241,0.142,0.085,south,6.8,No
2021/02/14,16:10,0.181,0.163,0.262,0.248,0.242,0.142,0.086,south,3.9,No
2021/02/14,16:20,0.180,0.162,0.262,0.249,0.240,0.142,0.085,south-southwest,4.0,No
2021/02/14,16:30,0.181,0.163,0.262,0.248,0.242,0.143,0.085,south-southwest,4.5,No
2021/02/14,16:40,0.181,0.161,0.264,0.249,0.241,0.143,0.085,south,5.9,No
2021/02/14,16:50,0.180,0.163,0.261,0.248,0.242,0.142,0.085,south,5.3,No
2021/02/14,17:00,0.181,0.162,0.262,0.248,0.240,0.143,0.086,south-southwest,6.5,No
2021/02/14,17:10,0.180,0.162,0.262,0.250,0.242,0.142,0.087,south,3.9,No
2021/02/14,17:20,0.181,0.164,0.261,0.248,0.241,0.143,0.086,south,6.8,No
2021/02/14,17:30,0.180,0.163,0.263,0.248,0.243,0.142,0.086,south,7.5,No
2021/02/14,17:40,0.182,0.162,0.262,0.249,0.242,0.142,0.085,south-southwest,7.7,No
2021/02/14,17:50,0.180,0.163,0.262,0.248,0.240,0.143,0.086,south-southwest,7.4,No
2021/02/14,18:00,0.180,0.162,0.262,0.249,0.242,0.142,0.085,south-southwest,7.6,No
2021/02/14,18:10,0.181,0.163,0.261,0.249,0.240,0.142,0.085,south-southwest,7.4,No
2021/02/14,18:20,0.180,0.162,0.262,0.249,0.241,0.142,0.086,south-southwest,7.9,No
2021/02/14,18:30,0.180,0.162,0.262,0.249,0.241,0.143,0.085,south-southwest,8.8,No
2021/02/14,18:40,0.180,0.163,0.263,0.248,0.241,0.143,0.086,south-southwest,7.9,No
2021/02/14,18:50,0.180,0.163,0.263,0.249,0.241,0.143,0.087,south-southwest,7.9,No
2021/02/14,19:00,0.181,0.162,0.261,0.249,0.241,0.142,0.086,south-southwest,8.4,No
2021/02/14,19:10,0.179,0.162,0.261,0.248,0.242,0.142,0.086,south-southwest,7.7,No
2021/02/14,19:20,0.180,0.162,0.261,0.248,0.240,0.141,0.086,south-southwest,8.3,No
2021/02/14,19:30,0.180,0.162,0.262,0.248,0.241,0.143,0.086,south-southwest,6.6,No
2021/02/14,19:40,0.179,0.163,0.262,0.249,0.241,0.142,0.085,south-southwest,6.3,No
2021/02/14,19:50,0.180,0.162,0.262,0.248,0.241,0.143,0.085,south-southwest,5.5,No
2021/02/14,20:00,0.179,0.162,0.262,0.248,0.242,0.142,0.085,south-southwest,5.3,No
2021/02/14,20:10,0.181,0.163,0.261,0.248,0.239,0.142,0.086,south-southwest,4.7,No
2021/02/14,20:20,0.180,0.162,0.262,0.249,0.242,0.142,0.086,south-southwest,4.2,No
2021/02/14,20:30,0.179,0.162,0.262,0.248,0.241,0.141,0.086,south,3.4,No
2021/02/14,20:40,0.181,0.163,0.262,0.249,0.242,0.142,0.086,south-southwest,5.3,No
2021/02/14,20:50,0.179,0.161,0.262,0.248,0.242,0.143,0.085,south-southwest,7.2,No
2021/02/14,21:00,0.180,0.163,0.262,0.248,0.241,0.142,0.086,south-southwest,8.1,No
2021/02/14,21:10,0.180,0.163,0.262,0.248,0.242,0.142,0.085,south-southwest,9.0,No
2021/02/14,21:20,0.180,0.163,0.262,0.248,0.241,0.142,0.085,south-southwest,8.5,No
2021/02/14,21:30,0.181,0.163,0.262,0.249,0.242,0.143,0.086,south-southwest,6.9,No
2021/02/14,21:40,0.181,0.163,0.262,0.248,0.242,0.142,0.085,south-southwest,6.8,No
2021/02/14,21:50,0.179,0.163,0.263,0.249,0.241,0.142,0.086,south-southwest,7.3,No
2021/02/14,22:00,0.182,0.163,0.262,0.249,0.242,0.143,0.086,south-southwest,6.3,No
2021/02/14,22:10,0.180,0.162,0.262,0.247,0.240,0.143,0.086,south-southwest,5.9,No
2021/02/14,22:20,0.180,0.162,0.263,0.249,0.242,0.143,0.086,south-southwest,5.9,No
2021/02/14,22:30,0.180,0.162,0.262,0.247,0.242,0.142,0.086,south-southwest,6.7,No
2021/02/14,22:40,0.180,0.162,0.262,0.248,0.242,0.142,0.086,south-southwest,7.8,No
2021/02/14,22:50,0.180,0.162,0.263,0.249,0.242,0.143,0.086,south-southwest,8.1,No
2021/02/14,23:00,0.180,0.163,0.260,0.247,0.240,0.143,0.086,south,8.1,No
2021/02/14,23:10,0.179,0.161,0.262,0.248,0.241,0.142,0.086,south-southwest,7.4,No
2021/02/14,23:20,0.181,0.162,0.262,0.250,0.241,0.143,0.085,south-southwest,6.3,No
2021/02/14,23:30,0.181,0.163,0.262,0.248,0.241,0.142,0.086,south,6.0,No
2021/02/14,23:40,0.181,0.162,0.263,0.248,0.242,0.142,0.085,south-southwest,6.2,No
2021/02/14,23:50,0.181,0.163,0.261,0.249,0.241,0.142,0.085,south-southwest,7.5,No
